Учкуприк

Узбекистан     40°32′42″N   71°03′27″E
темп.,
°C
ветер,
м/с
пор.,
м/с
влажн.,
%
обл.,
%
осадки,
мм/ч
давл.,
гПа
погр.,
м
23 октября, сб
сб2323:00+9св2244100 0.0 1035429
02:00+8всв12536 0.0 1035314
05:00+7всв23595 0.0 1035212
08:00+8в24540 0.0 1035310
11:00+12всв45360 0.0 10331101
14:00+15всв34230 0.0 10291420
17:00+14всв34220 0.0 1028821
20:00+12вюв23240 0.0 1029102
24 октября, вс
вс2423:00+11вюв23250 0.0 102896
02:00+10в23270 0.0 1026101
05:00+9всв23360 0.0 1026111
08:00+9в23340 0.0 1025191
11:00+14всв34220 0.0 1022638
14:00+18всв34140 0.0 1019985
17:00+17всв22140 0.0 101758
20:00+15юв11160 0.0 101710
25 октября, пн
пн2523:00+13юв11190 0.0 101711
02:00+12в22200 0.0 101748
05:00+10в23240 0.0 101790
08:00+11в22270 0.0 1018136
11:00+16всв34200 0.0 1017527
14:00+20всв23140 0.0 1015869
17:00+19всв11150 0.0 101514
20:00+16юв01180 0.0 101611
26 октября, вт
вт2623:00+15вюв11200 0.0 101711
02:00+13в11220 0.0 101715
05:00+12всв1124100 0.0 101819
08:00+13всв2225100 0.0 1020101
11:00+17всв2321100 0.0 1019428
14:00+19всв1118100 0.0 1018520
17:00+18ссв11195 0.0 101911
20:00+16ю00211 0.0 102011
27 октября, ср
ср2723:00+15ю112310 0.0 102010
02:00+14всв112460 0.0 102013
05:00+13юв0027100 0.0 102111
08:00+13зюз2427100 0.0 1022144
11:00+16зюз8937100 0.0 1022707
14:00+16з91240100 0.0 1021841
17:00+14зюз101448100 0.0 1022820
20:00+13зюз101448100 0.0 1024738